DL7HMX-13 Weather Reports


Display with metric or nautical units.
time (UTC)temp
F
wind
direction
speed
MPH
gust
MPH
rain 1hr
in
rain 24hr
in
rain mn
in
humidity
%
barometer
mb
20260505094022 74 110 1.0 4.0 0.00 0.01 0.00 51 1007.6
20260505093027 75 92 1.0 2.0 0.00 0.01 0.00 52 1007.7
20260505092029 72 71 1.0 3.0 0.00 0.01 0.00 55 1007.8
20260505091031 73 150 1.0 4.0 0.00 0.01 0.00 55 1007.9
20260505090018 72 136 2.0 4.0 0.00 0.01 0.00 56 1008.0
20260505085021 71 54 2.0 4.0 0.00 0.01 0.00 58 1008.1
20260505084024 69 49 2.0 4.0 0.00 0.01 0.00 60 1008.1
20260505083027 69 65 1.0 4.0 0.00 0.01 0.00 58 1008.1
20260505082031 68 72 1.0 4.0 0.00 0.01 0.00 58 1008.2
20260505081017 69 70 1.0 4.0 0.00 0.01 0.00 58 1008.2
20260505080020 68 77 1.0 3.0 0.00 0.01 0.00 60 1008.4
20260505075023 67 75 1.0 3.0 0.00 0.01 0.00 61 1008.5
20260505074026 67 69 1.0 4.0 0.00 0.01 0.00 59 1008.5
20260505073030 66 70 1.0 3.0 0.00 0.01 0.00 61 1008.4
20260505072032 66 66 1.0 3.0 0.00 0.01 0.00 63 1008.5
20260505071018 66 2 1.0 3.0 0.00 0.01 0.00 65 1008.7
20260505070022 65 13 0.0 1.0 0.00 0.01 0.00 63 1008.7
20260505065025 64 73 0.0 2.0 0.00 0.01 0.00 70 1008.6
20260505064027 62 87 1.0 2.0 0.00 0.01 0.00 75 1008.6
20260505063030 62 0.0 0.0 0.00 0.01 0.00 76 1008.8
20260505062017 63 0.0 0.0 0.00 0.01 0.00 75 1008.8
20260505061020 62 0.0 0.0 0.00 0.01 0.00 76 1008.9
20260505060023 60 0.0 0.0 0.00 0.01 0.00 81 1008.9
20260505055027 61 0.0 0.0 0.00 0.01 0.00 79 1008.9
20260505054029 59 0.0 0.0 0.00 0.01 0.00 81 1008.9
20260505053017 58 0.0 0.0 0.00 0.01 0.00 84 1008.9
20260505052019 57 104 0.0 2.0 0.00 0.01 0.00 86 1008.9
20260505051021 56 0.0 0.0 0.00 0.01 0.00 87 1009.0
20260505041023 53 0.0 0.0 0.00 0.01 0.00 93 1009.0
20260505040026 53 107 1.0 2.0 0.00 0.01 0.00 93 1009.0
20260505035029 53 0.0 0.0 0.00 0.01 0.00 93 1009.1
20260505034016 53 0.0 0.0 0.00 0.01 0.00 92 1009.0
20260505033020 54 104 1.0 2.0 0.00 0.01 0.00 92 1009.1
20260505032022 54 0.0 0.0 0.00 0.01 0.00 90 1009.1
20260505031024 54 104 1.0 2.0 0.00 0.01 0.00 88 1009.1
20260505030028 54 0.0 0.0 0.00 0.01 0.00 86 1009.3
20260505025031 54 0.0 0.0 0.00 0.01 0.00 86 1009.3
20260505024017 55 0.0 0.0 0.00 0.01 0.00 85 1009.4
20260505023021 55 106 0.0 1.0 0.00 0.01 0.00 85 1009.3
20260505022024 55 107 0.0 1.0 0.00 0.01 0.00 84 1009.4
20260505021026 56 100 1.0 2.0 0.00 0.01 0.00 85 1009.4
20260505020030 56 104 1.0 2.0 0.00 0.01 0.00 83 1009.5
20260505015018 56 0.0 0.0 0.00 0.01 0.00 83 1009.4
20260505014020 56 0.0 0.0 0.00 0.01 0.00 82 1009.5
20260505013023 57 0.0 0.0 0.00 0.01 0.00 81 1009.4
20260505012025 57 116 1.0 2.0 0.00 0.01 0.00 81 1009.5
20260505011028 57 0.0 0.0 0.00 0.01 0.00 81 1009.6
20260505010031 58 0.0 0.0 0.00 0.01 0.00 80 1009.7
20260505005018 58 103 0.0 2.0 0.00 0.01 0.00 81 1009.8
20260505004022 58 95 2.0 3.0 0.00 0.01 0.00 79 1009.9
20260505003025 59 74 1.0 3.0 0.00 0.01 0.00 77 1010.0
20260505002027 59 133 2.0 3.0 0.00 0.01 0.00 75 1010.0
20260505001030 61 180 2.0 4.0 0.00 0.01 0.00 71 1010.1
20260505000017 60 128 1.0 3.0 0.00 0.01 0.00 74 1010.2
20260504235020 59 168 3.0 4.0 0.00 0.01 0.00 74 1010.2
20260504234023 60 138 2.0 3.0 0.00 0.01 0.00 75 1010.1
20260504233026 59 162 0.0 3.0 0.00 0.01 0.00 76 1010.1
20260504232029 60 83 0.0 1.0 0.00 0.01 0.00 73 1010.0
20260504231017 60 151 2.0 4.0 0.00 0.01 0.00 74 1009.8
20260504230018 60 120 2.0 2.0 0.00 0.01 0.00 72 1009.8
20260504225022 61 0.0 0.0 0.00 0.01 0.00 72 1009.9
20260504224024 61 0.0 0.0 0.00 0.01 0.00 71 1009.9
20260504223027 62 117 1.0 1.0 0.00 0.01 0.00 67 1009.9
20260504222030 63 125 0.0 2.0 0.00 0.01 0.00 67 1009.8
20260504221016 63 127 1.0 2.0 0.00 0.01 0.00 67 1009.9
20260504220019 63 157 1.0 3.0 0.00 0.01 0.01 65 1010.0
20260504215022 64 137 1.0 3.0 0.00 0.01 0.01 65 1010.0
20260504214025 64 101 0.0 1.0 0.00 0.01 0.01 63 1010.1
20260504213029 65 100 2.0 7.0 0.00 0.01 0.01 62 1010.2
20260504212030 64 81 1.0 4.0 0.00 0.01 0.01 63 1010.4
20260504211017 63 99 0.0 1.0 0.00 0.01 0.01 67 1010.5
20260504210019 64 99 1.0 2.0 0.01 0.01 0.01 63 1010.6
20260504205023 66 103 0.0 2.0 0.01 0.01 0.01 57 1010.7
20260504204025 67 127 3.0 4.0 0.01 0.01 0.01 55 1010.9
20260504203027 67 156 6.0 11.0 0.01 0.01 0.01 56 1010.8
20260504202030 65 132 2.0 3.0 0.01 0.01 0.01 58 1010.7
20260504201032 65 100 0.0 1.0 0.01 0.01 0.01 63 1010.5
20260504200018 66 116 0.0 1.0 0.00 0.00 0.00 57 1010.4
20260504195020 69 88 3.0 7.0 0.00 0.00 0.00 48 1010.4
20260504194022 69 109 3.0 6.0 0.00 0.00 0.00 48 1010.3
20260504193024 69 104 5.0 13.0 0.00 0.00 0.00 46 1010.3
20260504192027 69 117 1.0 4.0 0.00 0.00 0.00 50 1010.8
20260504191030 69 242 0.0 3.0 0.00 0.00 0.00 50 1010.9
20260504190017 69 179 3.0 7.0 0.00 0.00 0.00 46 1010.6
20260504185020 70 296 3.0 6.0 0.00 0.00 0.00 47 1010.4
20260504184023 70 270 8.0 16.0 0.00 0.00 0.00 50 1010.6
20260504183025 72 271 7.0 16.0 0.00 0.00 0.00 46 1010.5
20260504182029 73 273 5.0 11.0 0.00 0.00 0.00 44 1010.2
20260504181017 72 257 3.0 7.0 0.00 0.00 0.00 44 1009.9
20260504180018 73 0.0 0.0 0.00 0.00 0.00 43 1009.8
20260504175020 74 0.0 0.0 0.00 0.00 0.00 41 1009.6
20260504174023 74 0.0 0.0 0.00 0.00 0.00 39 1009.6
20260504173026 75 0.0 0.0 0.00 0.00 0.00 38 1009.6
20260504172029 75 127 0.0 1.0 0.00 0.00 0.00 39 1009.6
20260504171015 77 102 0.0 1.0 0.00 0.00 0.00 39 1009.6
20260504151017 79 71 1.0 4.0 0.00 0.00 0.00 34 1010.3
20260504141019 82 104 0.0 1.0 0.00 0.00 0.00 32 1010.9